[[{"header":{"parameterUnit":"m.s-1","parameterCategory":1,"la1":30.2991,"la2":30.254,"lo1":-89.0895,"lo2":-89.0444,"dy":0.0017,"dx":0.0017,"nx":28,"ny":28,"refTime":"2024-07-25T09:00:00:Z","depth":0,"parameterNumber":2,"parameterNumberName":"U-component_of_WINDS"},"data":[0,0,0,0,0,0,0,0,0,0,0,0,0,0,0,0,0,0,0,0,0,0,0,0,0,0,0,0,0,0,0,0,0,0,0,0,0,0,0,0,0,0,0,0,0,0,0,0,0,0,0,0,0,0,0,0,0,0,-0.4889,-0.4889,0,-0.4822,-0.4822,-0.4821,-0.4765,-0.4764,-0.4764,-0.4763,-0.4692,-0.4691,-0.469,0,0,0,0,0,0,0,0,0,0,0,0,0,-0.4968,-0.4967,-0.489,-0.4889,-0.4888,-0.4823,-0.4822,-0.4821,-0.4765,-0.4764,-0.4764,-0.4763,-0.4693,-0.4691,-0.4689,0,0,0,0,0,0,0,0,0,0,0,0,0,-0.4921,-0.4967,-0.489,-0.4852,-0.4848,-0.4823,-0.4822,-0.482,-0.4765,-0.4764,-0.4763,-0.4763,-0.4693,-0.4691,-0.4689,-0.4695,0,0,-0.4683,-0.4682,0,0,0,0,0,0,0,0,-0.4924,-0.4918,-0.4859,-0.4855,-0.485,-0.4801,-0.4823,-0.4778,-0.4765,-0.4797,-0.4763,-0.4762,-0.4729,-0.4724,-0.4713,-0.4691,-0.4688,-0.4683,-0.4682,-0.4681,-0.468,0,0,0,0,0,0,0,-0.4927,-0.4921,-0.4863,-0.4858,-0.4853,-0.4838,-0.4831,-0.4814,-0.4769,-0.4794,-0.479,-0.4783,-0.4727,-0.4715,-0.4711,-0.4687,-0.4683,-0.4681,-0.468,-0.4679,-0.4668,-0.4669,0,0,0,0,0,0,-0.4936,-0.4924,-0.4865,-0.4861,-0.4886,-0.4838,-0.4829,-0.4818,-0.4769,-0.476,-0.4783,-0.478,-0.4719,-0.4714,-0.4709,-0.4713,-0.4681,-0.4679,-0.4678,-0.4667,-0.4668,-0.4669,0,0,0,0,0,0,-0.4938,-0.4932,-0.4868,-0.4891,-0.4882,-0.4837,-0.4825,-0.4817,-0.4806,-0.4761,-0.4752,-0.4781,-0.4718,-0.4711,-0.4699,-0.4709,-0.4678,-0.4676,-0.4666,-0.4667,-0.4668,-0.4721,0,0,0,0,0,0,-0.4941,-0.4933,-0.4935,-0.4892,-0.4881,-0.486,-0.4826,-0.4816,-0.4803,-0.4798,-0.4756,-0.4748,-0.4717,-0.4702,-0.4697,-0.4706,-0.4675,-0.4665,-0.4666,-0.4668,-0.4718,-0.4724,-0.4729,0,0,0,0,0,-0.4944,-0.4951,-0.4935,-0.4928,-0.4882,-0.4861,-0.4854,-0.4819,-0.4804,-0.4805,-0.4777,-0.4749,-0.4709,-0.4702,-0.4695,-0.4704,-0.4664,-0.4666,-0.4668,-0.4716,-0.4723,-0.4729,0,0,0,0,0,0,-0.4995,-0.4945,-0.4926,-0.492,-0.4895,-0.4851,-0.4852,-0.4828,-0.4806,-0.4803,-0.4759,-0.475,-0.4743,-0.4722,-0.4714,-0.4707,-0.4683,-0.4684,-0.4721,-0.4728,-0.4733,-0.4739,-0.4673,0,0,0,0,0,-0.5006,-0.4993,-0.4949,-0.4948,-0.4937,-0.4897,-0.4886,-0.4861,-0.4834,-0.4822,-0.4793,-0.4766,-0.4748,-0.4736,-0.4717,-0.4714,-0.4705,-0.4717,-0.4723,-0.4727,-0.4729,-0.4727,-0.4733,-0.4676,-0.4676,-0.4676,0,0,-0.5028,-0.4999,-0.4993,-0.4958,-0.4936,-0.4923,-0.4888,-0.4876,-0.4866,-0.482,-0.4807,-0.4785,-0.4752,-0.4746,-0.4741,-0.4728,-0.4742,-0.473,-0.4734,-0.4733,-0.473,-0.4735,-0.474,-0.4677,-0.4677,-0.4676,0,0,-0.5062,-0.5038,-0.5035,-0.5014,-0.4982,-0.4955,-0.4955,-0.4914,-0.4898,-0.4885,-0.485,-0.4838,-0.4806,-0.4785,-0.477,-0.4798,-0.4772,-0.4792,-0.4821,-0.482,-0.4824,-0.4828,-0.4839,-0.4843,-0.4794,-0.4794,-0.4794,0,-0.5093,-0.5074,-0.5037,-0.5027,-0.5013,-0.4972,-0.4969,-0.495,-0.4912,-0.4903,-0.4889,-0.485,-0.4825,-0.4813,-0.482,-0.4809,-0.4807,-0.4797,-0.4827,-0.483,-0.4833,-0.4843,-0.4847,-0.4797,-0.4796,-0.4796,-0.4796,0,-0.5114,-0.5101,-0.5103,-0.5069,-0.5055,-0.5048,-0.501,-0.5,-0.4977,-0.4952,-0.494,-0.4909,-0.4883,-0.4878,-0.4854,-0.4863,-0.4856,-0.4835,-0.481,-0.4842,-0.485,-0.4854,-0.4801,-0.48,-0.4799,-0.4798,0,0,-0.5179,-0.5125,-0.5127,-0.5111,-0.5073,-0.5062,-0.5054,-0.5029,-0.5022,-0.4997,-0.499,-0.4965,-0.4946,-0.4929,-0.4903,-0.4902,-0.4927,-0.4881,-0.4879,-0.4891,-0.4936,-0.4953,-0.4958,-0.491,-0.491,-0.4911,-0.4939,0,-0.5207,-0.5191,-0.5158,-0.5153,-0.5141,-0.5102,-0.5095,-0.5071,-0.5047,-0.5033,-0.5007,-0.499,-0.4965,-0.4955,-0.4953,-0.4925,-0.4935,-0.4922,-0.4902,-0.4902,-0.4913,-0.4962,-0.4979,-0.5008,-0.4942,-0.4942,-0.4943,0,-0.5238,-0.5217,-0.5211,-0.5175,-0.5168,-0.5163,-0.5138,-0.5125,-0.5097,-0.508,-0.5062,-0.5034,-0.5023,-0.5,-0.4985,-0.4977,-0.4967,-0.4952,-0.4952,-0.495,-0.4925,-0.4962,-0.5016,-0.502,-0.4947,-0.4947,-0.4947,0,-0.5287,-0.5258,-0.525,-0.5238,-0.5195,-0.5192,-0.5174,-0.5145,-0.5133,-0.5111,-0.5103,-0.508,-0.5067,-0.505,-0.5017,-0.5003,-0.5006,-0.498,-0.4992,-0.4993,-0.4995,-0.4995,-0.5049,-0.4987,-0.4987,-0.4987,-0.4987,0,-0.5323,-0.5321,-0.5272,-0.5268,-0.5264,-0.5227,-0.5224,-0.5202,-0.5177,-0.5167,-0.5132,-0.5123,-0.5079,-0.5066,-0.5039,-0.5032,-0.5026,-0.5012,-0.5005,-0.5016,-0.5018,-0.5009,-0.5007,-0.4988,-0.4988,-0.4988,-0.4988,0,-0.5377,-0.5345,-0.5334,-0.5295,-0.5285,-0.5284,-0.525,-0.5244,-0.5219,-0.5208,-0.5203,-0.5163,-0.5146,-0.5111,-0.5083,-0.5065,-0.5064,-0.5051,-0.5074,-0.507,-0.5085,-0.5084,-0.5136,-0.5141,-0.5075,-0.5076,-0.5076,0,-0.5403,-0.5401,-0.5361,-0.5353,-0.5337,-0.5323,-0.5311,-0.5274,-0.5262,-0.5231,-0.5229,-0.5209,-0.5191,-0.5165,-0.5134,-0.5113,-0.51,-0.5119,-0.5096,-0.5107,-0.5101,-0.5102,-0.5102,-0.5125,-0.5125,-0.5126,-0.5127,0,-0.5452,-0.5436,-0.542,-0.5399,-0.5386,-0.5367,-0.5347,-0.5342,-0.5299,-0.5289,-0.5271,-0.5257,-0.523,-0.5211,-0.5186,-0.5166,-0.514,-0.5134,-0.5136,-0.5147,-0.5161,-0.5155,-0.5089,-0.5133,-0.5133,-0.5132,-0.5132,-0.5132,-0.5493,-0.549,-0.5462,-0.5446,-0.5427,-0.5409,-0.5402,-0.5377,-0.5362,-0.5337,-0.5316,-0.53,-0.5273,-0.5236,-0.5218,-0.5206,-0.5193,-0.5195,-0.5196,-0.5197,-0.5202,-0.5163,-0.5201,-0.5201,-0.52,-0.52,-0.52,0,-0.5542,-0.5522,-0.5508,-0.5481,-0.5468,-0.5445,-0.5421,-0.5412,-0.54,-0.5376,-0.536,-0.534,-0.5322,-0.5289,-0.5268,-0.5264,-0.5252,-0.526,-0.526,-0.5256,-0.5215,-0.5216,-0.5271,-0.5271,-0.5271,-0.5271,-0.5271,-0.5271,-0.5565,-0.5559,-0.554,-0.5524,-0.5504,-0.549,-0.5478,-0.5462,-0.5443,-0.5423,-0.5408,-0.5387,-0.536,-0.5337,-0.5319,-0.531,-0.5304,-0.5317,-0.5304,-0.5266,-0.5259,-0.5253,-0.5254,-0.5316,-0.5316,-0.5347,-0.5347,-0.5347]},{"header":{"parameterUnit":"m.s-1","parameterCategory":1,"la1":30.2991,"la2":30.254,"lo1":-89.0895,"lo2":-89.0444,"dy":0.0017,"dx":0.0017,"nx":28,"ny":28,"refTime":"2024-07-25T09:00:00:Z","depth":0,"parameterNumber":3,"parameterNumberName":"V-component_of_WINDS"},"data":[0,0,0,0,0,0,0,0,0,0,0,0,0,0,0,0,0,0,0,0,0,0,0,0,0,0,0,0,0,0,0,0,0,0,0,0,0,0,0,0,0,0,0,0,0,0,0,0,0,0,0,0,0,0,0,0,0,0,2.6053,2.6052,0,2.5984,2.5983,2.5982,2.5906,2.5905,2.5904,2.5903,2.5831,2.583,2.5829,0,0,0,0,0,0,0,0,0,0,0,0,0,2.6118,2.6117,2.6053,2.6052,2.6051,2.5984,2.5983,2.5982,2.5906,2.5905,2.5904,2.5902,2.5831,2.583,2.5829,0,0,0,0,0,0,0,0,0,0,0,0,0,2.6073,2.6117,2.6053,2.6005,2.6,2.5984,2.5983,2.5982,2.5906,2.5905,2.5903,2.5902,2.5831,2.583,2.5829,2.5853,0,0,2.5825,2.5824,0,0,0,0,0,0,0,0,2.6076,2.6071,2.6013,2.6009,2.6003,2.5952,2.5979,2.5939,2.5907,2.5942,2.5903,2.5901,2.5872,2.5867,2.5858,2.585,2.5847,2.5825,2.5824,2.5823,2.5823,0,0,0,0,0,0,0,2.6079,2.6073,2.6025,2.6012,2.6006,2.5987,2.5979,2.5971,2.5917,2.5939,2.5933,2.5926,2.5869,2.586,2.5856,2.5846,2.5825,2.5823,2.5823,2.5822,2.5853,2.5855,0,0,0,0,0,0,2.6089,2.6077,2.6028,2.6023,2.6036,2.5987,2.5978,2.597,2.5917,2.5907,2.5928,2.5923,2.5863,2.5857,2.5853,2.5877,2.5823,2.5822,2.5821,2.5852,2.5854,2.5855,0,0,0,0,0,0,2.6091,2.6086,2.603,2.6048,2.604,2.5988,2.5979,2.5969,2.596,2.5909,2.5898,2.5928,2.5861,2.5855,2.5854,2.5874,2.5821,2.582,2.585,2.5852,2.5854,2.5928,0,0,0,0,0,0,2.6093,2.6087,2.6096,2.6049,2.6039,2.6033,2.598,2.5969,2.5958,2.5951,2.5906,2.5897,2.5859,2.5856,2.5852,2.5871,2.5819,2.5848,2.5851,2.5854,2.5923,2.5932,2.594,0,0,0,0,0,2.6096,2.612,2.6097,2.6092,2.605,2.6034,2.6029,2.5985,2.596,2.5968,2.5935,2.5898,2.5873,2.5857,2.5852,2.5871,2.5846,2.585,2.5853,2.5919,2.5931,2.594,0,0,0,0,0,0,2.617,2.6113,2.6087,2.6096,2.6071,2.6022,2.6031,2.5998,2.5979,2.5974,2.592,2.5911,2.5916,2.5893,2.5876,2.5891,2.5854,2.5857,2.5906,2.5916,2.5924,2.5929,2.5818,0,0,0,0,0,2.6188,2.6181,2.613,2.6143,2.6132,2.6084,2.6076,2.6044,2.6016,2.6004,2.5971,2.5945,2.593,2.5922,2.5906,2.5919,2.5908,2.593,2.5938,2.5946,2.5949,2.5953,2.5962,2.5867,2.5867,2.5867,0,0,2.6224,2.6192,2.619,2.6158,2.6134,2.6127,2.6075,2.6071,2.6065,2.6003,2.6,2.5975,2.5941,2.5948,2.5949,2.5929,2.5972,2.595,2.5956,2.5955,2.5958,2.5967,2.5975,2.587,2.5869,2.5869,0,0,2.6286,2.6261,2.6269,2.6246,2.6212,2.6179,2.6181,2.6137,2.6118,2.6114,2.6067,2.6059,2.6036,2.6014,2.5999,2.6052,2.6017,2.6048,2.6093,2.6098,2.6105,2.6112,2.613,2.6137,2.6052,2.6052,2.6052,0,2.6335,2.6324,2.6277,2.6275,2.6261,2.6206,2.6212,2.6193,2.6155,2.6146,2.6125,2.6093,2.6067,2.6067,2.608,2.607,2.607,2.6053,2.6108,2.6114,2.6119,2.6136,2.6143,2.6056,2.6055,2.6055,2.6055,0,2.6385,2.6378,2.6388,2.6353,2.634,2.6343,2.6296,2.6289,2.6258,2.6228,2.6224,2.6191,2.6166,2.6164,2.6134,2.6159,2.6148,2.6118,2.608,2.6133,2.6148,2.6154,2.6062,2.606,2.6059,2.6058,0,0,2.6493,2.6431,2.6436,2.6419,2.6376,2.6369,2.6368,2.6345,2.6339,2.6315,2.6312,2.6294,2.6265,2.6249,2.6216,2.6221,2.6264,2.619,2.6188,2.6204,2.6288,2.6311,2.6319,2.6241,2.6242,2.6242,2.6291,0,2.6547,2.6543,2.6501,2.6509,2.6501,2.6447,2.6447,2.642,2.6392,2.638,2.6348,2.6336,2.63,2.6289,2.6292,2.6258,2.628,2.6254,2.6237,2.6237,2.6247,2.6327,2.6351,2.6399,2.6297,2.6298,2.6298,0,2.661,2.6589,2.6597,2.6553,2.6548,2.6548,2.6522,2.6512,2.6481,2.646,2.6441,2.6404,2.64,2.6364,2.6356,2.634,2.633,2.6313,2.6313,2.631,2.6271,2.6326,2.6413,2.642,2.6307,2.6306,2.6306,0,2.6687,2.6661,2.6661,2.6648,2.6598,2.6599,2.6578,2.6544,2.6533,2.651,2.6502,2.6479,2.6467,2.645,2.6407,2.6385,2.6404,2.6365,2.6386,2.6387,2.6392,2.6393,2.6479,2.6387,2.6387,2.6387,2.6387,0,2.6752,2.6758,2.6695,2.6696,2.6701,2.6652,2.6658,2.6632,2.6602,2.6596,2.6548,2.6543,2.6487,2.6476,2.6442,2.6441,2.6435,2.6418,2.6409,2.6422,2.6424,2.6415,2.641,2.6389,2.6388,2.6388,2.6388,0,2.6839,2.6797,2.6794,2.6746,2.6734,2.674,2.6698,2.6696,2.6665,2.6658,2.6653,2.6604,2.6587,2.6543,2.6515,2.6493,2.6501,2.6484,2.6512,2.6506,2.6529,2.6527,2.6613,2.6621,2.6524,2.6525,2.6526,0,2.6883,2.6887,2.6839,2.6831,2.6812,2.6801,2.6789,2.674,2.6729,2.6693,2.6695,2.6675,2.6657,2.6633,2.6594,2.6573,2.6555,2.6586,2.6551,2.6564,2.6555,2.6555,2.6555,2.6594,2.6595,2.6596,2.6597,0,2.6965,2.6944,2.6929,2.6906,2.6893,2.6872,2.6849,2.6845,2.6791,2.6781,2.6764,2.6749,2.6721,2.6702,2.6674,2.6651,2.6615,2.6608,2.6612,2.6625,2.6641,2.6632,2.6532,2.6607,2.6606,2.6605,2.6604,2.6604,2.7032,2.7032,2.6999,2.6983,2.696,2.6939,2.6935,2.6903,2.6888,2.6861,2.6833,2.6819,2.6786,2.6745,2.6725,2.6712,2.6693,2.6699,2.67,2.6702,2.6708,2.6643,2.6707,2.6707,2.6706,2.6706,2.6706,0,2.7111,2.7087,2.7073,2.7042,2.7029,2.6996,2.6969,2.696,2.6948,2.6921,2.6903,2.6883,2.6864,2.6824,2.68,2.6798,2.6781,2.6794,2.6793,2.6789,2.6726,2.6725,2.6808,2.6808,2.6808,2.6808,2.6808,2.6808,2.7151,2.715,2.7125,2.7112,2.7087,2.7073,2.706,2.704,2.7018,2.6998,2.6982,2.6955,2.6922,2.6896,2.6877,2.6865,2.6859,2.6877,2.686,2.6803,2.6793,2.6784,2.6782,2.6876,2.6876,2.6923,2.6923,2.6924]}]]